Погода в Центральном

Россия / Томская область     58°56′54″N   86°00′08″E
темп.,
°C
ветер,
м/с
пор.,
м/с
влажн.,
%
обл.,
%
осадки,
мм/ч
давл.,
гПа
погр.,
м
14 июня, пн
пн1401:00+8с310690 0.0 1017201
04:00+6с37775 0.0 1018136
07:00+10с356380 0.0 1019254
10:00+14с3544100 0.0 10201118
13:00+18с35325 0.0 10191579
16:00+20ссз35345 0.0 10181910
19:00+21ссз354014 0.0 10181952
22:00+15зюз11645 0.0 101711
15 июня, вт
вт1501:00+12ююз2270100 0.0 101739
04:00+12зюз4989100 0.6 1017270
07:00+13ю3895100 2.7 1016227
10:00+17ююз4769100 0.0 1014511
13:00+18ю3481100 0.4 1013251
16:00+16зюз2590100 0.3 1013208
19:00+17юз3887100 0.3 1012412
22:00+14зсз1194100 0.0 101116
16 июня, ср
ср1601:00+14ююз389594 0.3 1010196
04:00+13ю27975 0.1 1009147
07:00+15ю24929 0.3 1008160
10:00+21юз356590 0.0 1008671
13:00+24зюз5754100 0.0 10071165
16:00+27юз464559 0.0 10051805
19:00+19зюз3976100 0.2 1006321
22:00+16ююз3891100 0.1 1005327
17 июня, чт
чт1701:00+15юз399832 0.1 1005311
04:00+15з369392 0.0 1005361
07:00+15з2594100 0.0 1005295
10:00+16зюз248997 0.3 1006475
13:00+18зюз446744 0.4 1006935
16:00+21з345199 0.1 10051808
19:00+18сз236520 0.4 1005460
22:00+15с118216 0.2 100511
18 июня, пт
пт1801:00+13всв129299 0.3 100533
04:00+12с229570 0.4 100431
07:00+14с2491100 0.4 1005157
10:00+20ссв236628 0.0 1004937
13:00+24вюв344465 0.2 10032058
16:00+21ю1261100 0.0 100473
19:00+22вюв236133 0.4 1004751
22:00+16вюв26890 0.1 1004137